Huntsville, AL

5:14 PM CST on December 07, 2016 (GMT -0600)
Huntsville International

Weather History for KHSV - January, 2012

Change the Weather History Date:

Sunday, January 8, 2012

  Actual Average Record
Temperature  
Mean Temperature 55 °F 41 °F  
Max Temperature 59 °F 51 °F 71 °F (1946)
Min Temperature 50 °F 32 °F 2 °F (1942)
Degree Days  
Heating Degree Days 10 24  
Month to date heating degree days 167 192  
Since 1 July heating degree days 1273 1373  
Cooling Degree Days 0 0  
Month to date cooling degree days 0 0  
Year to date cooling degree days 0 0  
Growing Degree Days 4 (Base 50)    
Moisture  
Dew Point 52 °F    
Average Humidity 93    
Maximum Humidity 100    
Minimum Humidity 86    
Precipitation  
Precipitation 0.22 in 0.15 in 1.06 in (1997)
Month to date precipitation 0.84 1.27  
Year to date precipitation 0.84 1.27  
Snow  
Snow 0.00 in - - ()
Month to date snowfall T  
Since 1 July snowfall T  
Snow Depth 0.00 in    
Sea Level Pressure  
Sea Level Pressure 30.14 in    
Wind  
Wind Speed 3 mph (ENE)    
Max Wind Speed 8 mph    
Max Gust Speed 10 mph    
Visibility 3 miles    
Events Fog , Rain    
T = Trace of Precipitation, MM = Missing Value Source: NWS Daily Summary

Daily Weather History Graph

Daily Weather History Graph

Search for Another Location

Airport or City:

Trip Planner

Search our weather history database for the weather conditions in past years. The results will help you decide how hot, cold, wet, or windy it might be!

Date:

Astronomy

Jan. 08, 2012 Rise Set
Actual Time 6:54 AM CST 4:52 PM CST
Civil Twilight 6:27 AM CST 5:20 PM CST
Nautical Twilight 5:55 AM CST 5:51 PM CST
Astronomical Twilight 5:25 AM CST 6:22 PM CST
Moon 4:34 PM CST (1/8) 6:12 AM CST (1/8)
Length of Visible Light 10h 53m
Length of Day
9h 57m
Full, 100% of the Moon is Illuminated
Jan 8
Full
Jan 9
Full
Jan 16
Last Quarter
Jan 23
New
Jan 30
First Quarter

Hourly Weather History & Observations

Time (CST) Temp. Dew Point Humidity Pressure Visibility Wind Dir Wind Speed Gust Speed Precip Events Conditions
12:11 AM 53.6 °F 53.6 °F 100% 30.12 in 3.0 mi North 3.5 mph - 0.00 in Rain Light Rain
12:25 AM 53.6 °F 51.8 °F 94% 30.12 in 2.0 mi Calm Calm - 0.01 in Rain Light Rain
12:45 AM 53.6 °F 51.8 °F 94% 30.12 in 2.5 mi NE 3.5 mph - 0.01 in   Overcast
12:53 AM 54.0 °F 52.0 °F 93% 30.11 in 3.0 mi NE 3.5 mph - 0.01 in   Overcast
1:25 AM 53.6 °F 51.8 °F 94% 30.12 in 2.5 mi Calm Calm - 0.00 in Rain Light Rain
1:35 AM 53.6 °F 51.8 °F 94% 30.13 in 4.0 mi Calm Calm - 0.00 in Rain Light Rain
1:53 AM 54.0 °F 51.1 °F 90% 30.12 in 4.0 mi NE 4.6 mph - 0.00 in   Overcast
2:12 AM 53.6 °F 51.8 °F 94% 30.13 in 2.5 mi Calm Calm - N/A   Overcast
2:23 AM 51.8 °F 50.0 °F 94% 30.12 in 3.0 mi NNE 5.8 mph - N/A   Overcast
2:53 AM 52.0 °F 50.0 °F 93% 30.11 in 4.0 mi NNE 3.5 mph - N/A   Overcast
3:53 AM 51.1 °F 48.0 °F 89% 30.11 in 8.0 mi NE 5.8 mph - 0.03 in   Overcast
4:53 AM 51.1 °F 48.0 °F 89% 30.12 in 6.0 mi North 4.6 mph - N/A   Overcast
5:53 AM 51.1 °F 48.9 °F 92% 30.12 in 5.0 mi Calm Calm - N/A   Overcast
6:53 AM 50.0 °F 46.4 °F 87% 30.13 in 9.0 mi NE 4.6 mph - N/A   Overcast
7:53 AM 50.0 °F 48.0 °F 93% 30.15 in 5.0 mi SE 3.5 mph - 0.00 in   Overcast
8:53 AM 52.0 °F 48.9 °F 89% 30.17 in 5.0 mi Calm Calm - 0.00 in Rain Light Rain
9:53 AM 52.0 °F 48.9 °F 89% 30.18 in 3.0 mi Calm Calm - 0.00 in Rain Light Rain
10:35 AM 51.8 °F 50.0 °F 94% 30.18 in 2.0 mi Calm Calm - 0.02 in Rain Light Rain
10:53 AM 52.0 °F 50.0 °F 93% 30.17 in 2.0 mi NW 3.5 mph - 0.04 in Rain Rain
11:00 AM 51.8 °F 50.0 °F 94% 30.17 in 1.0 mi Calm Calm - 0.02 in Rain Heavy Rain
11:18 AM 51.8 °F 50.0 °F 94% 30.17 in 0.8 mi Calm Calm - 0.10 in Rain Rain
11:20 AM 51.8 °F 50.0 °F 94% 30.16 in 1.0 mi Calm Calm - 0.11 in Rain Rain
11:27 AM 53.6 °F 51.8 °F 94% 30.17 in 1.0 mi Calm Calm - 0.12 in Rain Rain
11:35 AM 53.6 °F 51.8 °F 94% 30.16 in 1.0 mi Calm Calm - 0.13 in Rain Light Rain
11:53 AM 53.1 °F 51.1 °F 93% 30.16 in 1.0 mi Calm Calm - 0.13 in   Overcast
12:35 PM 53.6 °F 51.8 °F 94% 30.15 in 1.0 mi Calm Calm - 0.00 in Rain Light Rain
12:53 PM 54.0 °F 52.0 °F 93% 30.13 in 1.8 mi Calm Calm - 0.01 in Rain Light Rain
1:21 PM 55.4 °F 53.6 °F 94% 30.12 in 0.5 mi ESE 4.6 mph - 0.00 in   Overcast
1:31 PM 55.4 °F 53.6 °F 94% 30.12 in 0.5 mi ESE 3.5 mph - 0.00 in   Overcast
1:36 PM 55.4 °F 53.6 °F 94% 30.13 in 1.0 mi ESE 3.5 mph - 0.00 in   Overcast
1:53 PM 57.0 °F 54.0 °F 89% 30.12 in 2.0 mi ESE 5.8 mph - 0.00 in   Overcast
2:25 PM 57.2 °F 55.4 °F 94% 30.13 in 1.0 mi SE 3.5 mph - 0.00 in   Light Drizzle
2:53 PM 57.0 °F 55.0 °F 93% 30.13 in 2.0 mi Calm Calm - 0.00 in   Overcast
3:22 PM 57.2 °F 55.4 °F 94% 30.13 in 2.0 mi Calm Calm - N/A   Overcast
3:25 PM 57.2 °F 55.4 °F 94% 30.13 in 4.0 mi Calm Calm - N/A   Overcast
3:38 PM 57.2 °F 55.4 °F 94% 30.14 in 6.0 mi Calm Calm - N/A   Overcast
3:53 PM 57.9 °F 55.0 °F 90% 30.13 in 6.0 mi Calm Calm - N/A   Overcast
4:01 PM 59.0 °F 55.4 °F 88% 30.14 in 6.0 mi Calm Calm - N/A   Overcast
4:42 PM 55.4 °F 51.8 °F 88% 30.16 in 3.0 mi North 6.9 mph - N/A   Overcast
4:53 PM 54.0 °F 52.0 °F 93% 30.15 in 3.0 mi North 5.8 mph - N/A   Overcast
5:45 PM 53.6 °F 51.8 °F 94% 30.18 in 3.0 mi North 4.6 mph - N/A   Overcast
5:53 PM 53.1 °F 51.1 °F 93% 30.18 in 3.0 mi NNW 3.5 mph - N/A   Overcast
6:53 PM 54.0 °F 52.0 °F 93% 30.17 in 3.0 mi NE 3.5 mph - N/A   Overcast
7:02 PM 53.6 °F 51.8 °F 94% 30.18 in 3.0 mi ENE 3.5 mph - N/A   Overcast
7:22 PM 53.6 °F 51.8 °F 94% 30.17 in 3.0 mi East 4.6 mph - N/A   Overcast
7:53 PM 52.0 °F 51.1 °F 97% 30.16 in 3.0 mi East 5.8 mph - N/A   Overcast
8:15 PM 53.6 °F 51.8 °F 94% 30.16 in 3.0 mi ENE 3.5 mph - N/A   Overcast
8:42 PM 53.6 °F 50.0 °F 88% 30.17 in 1.0 mi Calm Calm - N/A   Overcast
8:53 PM 53.1 °F 51.1 °F 93% 30.16 in 1.0 mi SE 3.5 mph - N/A   Overcast
9:09 PM 53.6 °F 51.8 °F 94% 30.16 in 0.5 mi Calm Calm - N/A Fog Fog
9:42 PM 51.8 °F 51.8 °F 100% 30.16 in 0.2 mi Calm Calm - N/A Fog Fog
9:53 PM 52.0 °F 51.1 °F 97% 30.16 in 0.2 mi SSE 3.5 mph - N/A Fog Fog
10:53 PM 52.0 °F 51.1 °F 97% 30.14 in 0.2 mi Calm Calm - N/A Fog Fog
11:18 PM 53.6 °F 51.8 °F 94% 30.14 in 0.2 mi Calm Calm - N/A Fog Fog
11:40 PM 53.6 °F 51.8 °F 94% 30.14 in 0.2 mi Calm Calm - N/A Fog Fog
11:53 PM 53.1 °F 51.1 °F 93% 30.14 in 0.2 mi Calm Calm - N/A Fog Fog